contact:dominique.lefevre@mio.osupytheas.fr, maurice.libes@osupytheas.fr, didier.mallarino@osupytheas.fr
Project:EMSO http://www.emso-fr.org/EMSO-France
Depth: 2436.0 m
Title:EMSO Ligure Ouest : Data MII capteur MICROCAT
DateTime_Computer,Latitude,Longitude,Temperature,Conductivity,Pressure,DateTime_Instrument
DateTime_Computer,Latitude,Longitude,degC,S m-1,dbar,DateTime_Instrument
2023-07-22T00:00:19Z,42.805,6.029,13.3072,4.60158,2470.824,2023-7-22T02:02:36Z
2023-07-22T00:03:22Z,42.805,6.029,13.3069,4.60173,2470.8,2023-7-22T02:05:39Z
2023-07-22T00:06:25Z,42.805,6.029,13.3062,4.60190,2470.777,2023-7-22T02:08:42Z
2023-07-22T00:09:28Z,42.805,6.029,13.3066,4.60180,2470.777,2023-7-22T02:11:45Z
2023-07-22T00:12:31Z,42.805,6.029,13.3070,4.60125,2470.763,2023-7-22T02:14:48Z
2023-07-22T00:15:34Z,42.805,6.029,13.3120,4.60117,2470.763,2023-7-22T02:17:51Z
2023-07-22T00:18:37Z,42.805,6.029,13.3082,4.60104,2470.74,2023-7-22T02:20:54Z
2023-07-22T00:21:40Z,42.805,6.029,13.3077,4.60118,2470.8,2023-7-22T02:23:58Z
2023-07-22T00:24:43Z,42.805,6.029,13.3040,4.60102,2470.777,2023-7-22T02:27:01Z
2023-07-22T00:27:46Z,42.805,6.029,13.3038,4.60104,2470.777,2023-7-22T02:30:04Z
2023-07-22T00:30:50Z,42.805,6.029,13.3070,4.60132,2470.777,2023-7-22T02:33:07Z
2023-07-22T00:33:53Z,42.805,6.029,13.3067,4.60138,2470.74,2023-7-22T02:36:10Z
2023-07-22T00:36:56Z,42.805,6.029,13.3067,4.60140,2470.717,2023-7-22T02:39:13Z
2023-07-22T00:39:59Z,42.805,6.029,13.3056,4.60118,2470.74,2023-7-22T02:42:16Z
2023-07-22T00:43:02Z,42.805,6.029,13.3077,4.60103,2470.707,2023-7-22T02:45:19Z
2023-07-22T00:46:05Z,42.805,6.029,13.3029,4.60097,2470.717,2023-7-22T02:48:22Z
2023-07-22T00:49:08Z,42.805,6.029,13.3032,4.60095,2470.763,2023-7-22T02:51:25Z
2023-07-22T00:52:11Z,42.805,6.029,13.3030,4.60092,2470.73,2023-7-22T02:54:28Z
2023-07-22T00:55:14Z,42.805,6.029,13.3030,4.60106,2470.763,2023-7-22T02:57:31Z
2023-07-22T00:58:17Z,42.805,6.029,13.3029,4.60097,2470.717,2023-7-22T03:00:35Z
2023-07-22T01:01:20Z,42.805,6.029,13.3030,4.60091,2470.754,2023-7-22T03:03:38Z
2023-07-22T01:04:23Z,42.805,6.029,13.3029,4.60095,2470.74,2023-7-22T03:06:41Z
2023-07-22T01:07:27Z,42.805,6.029,13.3073,4.60128,2470.73,2023-7-22T03:09:44Z
2023-07-22T01:10:30Z,42.805,6.029,13.3063,4.60099,2470.74,2023-7-22T03:12:47Z
2023-07-22T01:13:33Z,42.805,6.029,13.3039,4.60104,2470.74,2023-7-22T03:15:50Z
2023-07-22T01:16:36Z,42.805,6.029,13.3054,4.60118,2470.754,2023-7-22T03:18:53Z
2023-07-22T01:19:39Z,42.805,6.029,13.3057,4.60120,2470.754,2023-7-22T03:21:56Z
2023-07-22T01:22:42Z,42.805,6.029,13.3063,4.60125,2470.717,2023-7-22T03:24:59Z
2023-07-22T01:25:45Z,42.805,6.029,13.3058,4.60130,2470.73,2023-7-22T03:28:02Z
2023-07-22T01:28:48Z,42.805,6.029,13.3056,4.60119,2470.754,2023-7-22T03:31:05Z
2023-07-22T01:31:51Z,42.805,6.029,13.3058,4.60114,2470.717,2023-7-22T03:34:08Z
2023-07-22T01:34:54Z,42.805,6.029,13.3054,4.60136,2470.717,2023-7-22T03:37:11Z
2023-07-22T01:37:57Z,42.805,6.029,13.3054,4.60097,2470.74,2023-7-22T03:40:15Z
2023-07-22T01:41:00Z,42.805,6.029,13.3031,4.60091,2470.777,2023-7-22T03:43:18Z
2023-07-22T01:44:03Z,42.805,6.029,13.3033,4.60090,2470.73,2023-7-22T03:46:21Z
2023-07-22T01:47:07Z,42.805,6.029,13.3049,4.60097,2470.717,2023-7-22T03:49:24Z
2023-07-22T01:50:10Z,42.805,6.029,13.3032,4.60096,2470.707,2023-7-22T03:52:27Z
2023-07-22T01:53:13Z,42.805,6.029,13.3031,4.60089,2470.73,2023-7-22T03:55:30Z
2023-07-22T01:56:16Z,42.805,6.029,13.3027,4.60087,2470.74,2023-7-22T03:58:33Z
2023-07-22T01:59:19Z,42.805,6.029,13.3023,4.60097,2470.717,2023-7-22T04:01:36Z
2023-07-22T02:02:22Z,42.805,6.029,13.3029,4.60092,2470.693,2023-7-22T04:04:39Z
2023-07-22T02:05:25Z,42.805,6.029,13.3026,4.60090,2470.693,2023-7-22T04:07:42Z
2023-07-22T02:08:28Z,42.805,6.029,13.3029,4.60095,2470.717,2023-7-22T04:10:45Z
2023-07-22T02:11:31Z,42.805,6.029,13.3028,4.60091,2470.717,2023-7-22T04:13:48Z
2023-07-22T02:14:34Z,42.805,6.029,13.3030,4.60091,2470.717,2023-7-22T04:16:52Z
2023-07-22T02:17:37Z,42.805,6.029,13.3035,4.60088,2470.693,2023-7-22T04:19:55Z
2023-07-22T02:20:41Z,42.805,6.029,13.3032,4.60094,2470.693,2023-7-22T04:22:58Z
2023-07-22T02:23:44Z,42.805,6.029,13.3029,4.60088,2470.693,2023-7-22T04:26:01Z
2023-07-22T02:26:47Z,42.805,6.029,13.3027,4.60087,2470.693,2023-7-22T04:29:04Z
2023-07-22T02:29:50Z,42.805,6.029,13.3024,4.60089,2470.693,2023-7-22T04:32:07Z
2023-07-22T02:32:53Z,42.805,6.029,13.3024,4.60088,2470.717,2023-7-22T04:35:10Z
2023-07-22T02:35:56Z,42.805,6.029,13.3022,4.60089,2470.693,2023-7-22T04:38:13Z
2023-07-22T02:38:59Z,42.805,6.029,13.3021,4.60092,2470.707,2023-7-22T04:41:16Z
2023-07-22T02:42:02Z,42.805,6.029,13.3023,4.60086,2470.707,2023-7-22T04:44:19Z
2023-07-22T02:45:05Z,42.805,6.029,13.3028,4.60087,2470.73,2023-7-22T04:47:22Z
2023-07-22T02:48:08Z,42.805,6.029,13.3025,4.60091,2470.693,2023-7-22T04:50:26Z
2023-07-22T02:51:11Z,42.805,6.029,13.3032,4.60087,2470.656,2023-7-22T04:53:29Z
2023-07-22T02:54:14Z,42.805,6.029,13.3029,4.60092,2470.693,2023-7-22T04:56:32Z
2023-07-22T02:57:18Z,42.805,6.029,13.3023,4.60090,2470.693,2023-7-22T04:59:35Z
2023-07-22T03:00:21Z,42.805,6.029,13.3023,4.60092,2470.684,2023-7-22T05:02:38Z
2023-07-22T03:03:24Z,42.805,6.029,13.3022,4.60087,2470.67,2023-7-22T05:05:41Z
2023-07-22T03:06:27Z,42.805,6.029,13.3024,4.60089,2470.693,2023-7-22T05:08:44Z
2023-07-22T03:09:30Z,42.805,6.029,13.3026,4.60089,2470.693,2023-7-22T05:11:47Z
2023-07-22T03:12:33Z,42.805,6.029,13.3024,4.60086,2470.67,2023-7-22T05:14:50Z
2023-07-22T03:15:36Z,42.805,6.029,13.3025,4.60086,2470.707,2023-7-22T05:17:53Z
2023-07-22T03:18:39Z,42.805,6.029,13.3027,4.60086,2470.693,2023-7-22T05:20:56Z
2023-07-22T03:21:42Z,42.805,6.029,13.3025,4.60087,2470.661,2023-7-22T05:23:59Z
2023-07-22T03:24:45Z,42.805,6.029,13.3025,4.60086,2470.646,2023-7-22T05:27:03Z
2023-07-22T03:27:48Z,42.805,6.029,13.3026,4.60087,2470.684,2023-7-22T05:30:06Z
2023-07-22T03:30:51Z,42.805,6.029,13.3029,4.60088,2470.684,2023-7-22T05:33:09Z
2023-07-22T03:33:55Z,42.805,6.029,13.3028,4.60087,2470.646,2023-7-22T05:36:12Z
2023-07-22T03:36:58Z,42.805,6.029,13.3025,4.60089,2470.661,2023-7-22T05:39:15Z
2023-07-22T03:40:01Z,42.805,6.029,13.3026,4.60086,2470.693,2023-7-22T05:42:18Z
2023-07-22T03:43:04Z,42.805,6.029,13.3027,4.60087,2470.67,2023-7-22T05:45:21Z
2023-07-22T03:46:07Z,42.805,6.029,13.3024,4.60092,2470.703,2023-7-22T05:48:24Z
2023-07-22T03:49:10Z,42.805,6.029,13.3026,4.60087,2470.661,2023-7-22T05:51:27Z
2023-07-22T03:52:13Z,42.805,6.029,13.3023,4.60089,2470.637,2023-7-22T05:54:30Z
2023-07-22T03:55:16Z,42.805,6.029,13.3025,4.60087,2470.67,2023-7-22T05:57:33Z
2023-07-22T03:58:19Z,42.805,6.029,13.3025,4.60091,2470.646,2023-7-22T06:00:36Z
2023-07-22T04:01:22Z,42.805,6.029,13.3028,4.60092,2470.646,2023-7-22T06:03:40Z
2023-07-22T04:04:25Z,42.805,6.029,13.3023,4.60089,2470.67,2023-7-22T06:06:43Z
2023-07-22T04:07:28Z,42.805,6.029,13.3026,4.60087,2470.646,2023-7-22T06:09:46Z
2023-07-22T04:10:32Z,42.805,6.029,13.3021,4.60086,2470.67,2023-7-22T06:12:49Z
2023-07-22T04:13:35Z,42.805,6.029,13.3030,4.60090,2470.684,2023-7-22T06:15:52Z
2023-07-22T04:16:38Z,42.805,6.029,13.3027,4.60086,2470.684,2023-7-22T06:18:55Z
2023-07-22T04:19:41Z,42.805,6.029,13.3026,4.60086,2470.624,2023-7-22T06:21:58Z
2023-07-22T04:22:44Z,42.805,6.029,13.3025,4.60104,2470.693,2023-7-22T06:25:01Z
2023-07-22T04:25:47Z,42.805,6.029,13.3037,4.60092,2470.646,2023-7-22T06:28:04Z
2023-07-22T04:28:50Z,42.805,6.029,13.3043,4.60119,2470.67,2023-7-22T06:31:07Z
2023-07-22T04:31:53Z,42.805,6.029,13.3053,4.60106,2470.661,2023-7-22T06:34:10Z
2023-07-22T04:34:56Z,42.805,6.029,13.3050,4.60110,2470.646,2023-7-22T06:37:13Z
2023-07-22T04:37:59Z,42.805,6.029,13.3029,4.60093,2470.646,2023-7-22T06:40:17Z
2023-07-22T04:41:02Z,42.805,6.029,13.3040,4.60101,2470.637,2023-7-22T06:43:20Z
2023-07-22T04:44:05Z,42.805,6.029,13.3046,4.60104,2470.661,2023-7-22T06:46:23Z
2023-07-22T04:47:09Z,42.805,6.029,13.3050,4.60117,2470.646,2023-7-22T06:49:26Z
2023-07-22T04:50:12Z,42.805,6.029,13.3054,4.60132,2470.661,2023-7-22T06:52:29Z
2023-07-22T04:53:15Z,42.805,6.029,13.3051,4.60106,2470.646,2023-7-22T06:55:32Z
2023-07-22T04:56:18Z,42.805,6.029,13.3046,4.60153,2470.646,2023-7-22T06:58:35Z
2023-07-22T04:59:21Z,42.805,6.029,13.3051,4.60122,2470.646,2023-7-22T07:01:38Z
2023-07-22T05:02:24Z,42.805,6.029,13.3051,4.60155,2470.633,2023-7-22T07:04:41Z
2023-07-22T05:05:27Z,42.805,6.029,13.3046,4.60155,2470.646,2023-7-22T07:07:44Z
2023-07-22T05:08:30Z,42.805,6.029,13.3041,4.60144,2470.67,2023-7-22T07:10:47Z
2023-07-22T05:11:33Z,42.805,6.029,13.3043,4.60126,2470.646,2023-7-22T07:13:50Z
2023-07-22T05:14:36Z,42.805,6.029,13.3043,4.60124,2470.646,2023-7-22T07:16:54Z
2023-07-22T05:17:39Z,42.805,6.029,13.3059,4.60152,2470.646,2023-7-22T07:19:57Z
2023-07-22T05:20:42Z,42.805,6.029,13.3044,4.60160,2470.661,2023-7-22T07:23:00Z
2023-07-22T05:23:46Z,42.805,6.029,13.3046,4.60154,2470.646,2023-7-22T07:26:03Z
2023-07-22T05:26:49Z,42.805,6.029,13.3056,4.60115,2470.67,2023-7-22T07:29:06Z
2023-07-22T05:29:52Z,42.805,6.029,13.3054,4.60129,2470.661,2023-7-22T07:32:09Z
2023-07-22T05:32:55Z,42.805,6.029,13.3062,4.60145,2470.661,2023-7-22T07:35:12Z
2023-07-22T05:35:58Z,42.805,6.029,13.3043,4.60138,2470.624,2023-7-22T07:38:15Z
2023-07-22T05:39:01Z,42.805,6.029,13.3041,4.60116,2470.661,2023-7-22T07:41:18Z
2023-07-22T05:42:04Z,42.805,6.029,13.3040,4.60126,2470.661,2023-7-22T07:44:21Z
2023-07-22T05:45:07Z,42.805,6.029,13.3039,4.60125,2470.693,2023-7-22T07:47:24Z
2023-07-22T05:48:10Z,42.805,6.029,13.3038,4.60132,2470.67,2023-7-22T07:50:27Z
2023-07-22T05:51:13Z,42.805,6.029,13.3043,4.60140,2470.67,2023-7-22T07:53:31Z
2023-07-22T05:54:16Z,42.805,6.029,13.3034,4.60137,2470.661,2023-7-22T07:56:34Z
2023-07-22T05:57:19Z,42.805,6.029,13.3039,4.60127,2470.646,2023-7-22T07:59:37Z
2023-07-22T06:00:23Z,42.805,6.029,13.3047,4.60129,2470.684,2023-7-22T08:02:40Z
2023-07-22T06:03:26Z,42.805,6.029,13.3041,4.60140,2470.624,2023-7-22T08:05:43Z
2023-07-22T06:06:29Z,42.805,6.029,13.3045,4.60140,2470.67,2023-7-22T08:08:46Z
2023-07-22T06:09:32Z,42.805,6.029,13.3042,4.60135,2470.661,2023-7-22T08:11:49Z
2023-07-22T06:12:35Z,42.805,6.029,13.3040,4.60128,2470.661,2023-7-22T08:14:52Z
2023-07-22T06:15:38Z,42.805,6.029,13.3043,4.60147,2470.646,2023-7-22T08:17:55Z
2023-07-22T06:18:41Z,42.805,6.029,13.3039,4.60132,2470.67,2023-7-22T08:20:58Z
2023-07-22T06:21:44Z,42.805,6.029,13.3051,4.60165,2470.624,2023-7-22T08:24:01Z
2023-07-22T06:24:47Z,42.805,6.029,13.3038,4.60128,2470.67,2023-7-22T08:27:04Z
2023-07-22T06:27:50Z,42.805,6.029,13.3046,4.60151,2470.67,2023-7-22T08:30:08Z
2023-07-22T06:30:52Z,42.805,6.029,13.3042,4.60134,2470.693,2023-7-22T08:33:09Z
2023-07-22T06:33:55Z,42.805,6.029,13.3051,4.60160,2470.67,2023-7-22T08:36:12Z
2023-07-22T06:36:58Z,42.805,6.029,13.3041,4.60144,2470.67,2023-7-22T08:39:15Z
2023-07-22T06:40:01Z,42.805,6.029,13.3048,4.60133,2470.67,2023-7-22T08:42:18Z
2023-07-22T06:43:04Z,42.805,6.029,13.3048,4.60146,2470.661,2023-7-22T08:45:21Z
2023-07-22T06:46:07Z,42.805,6.029,13.3043,4.60142,2470.707,2023-7-22T08:48:25Z
2023-07-22T06:49:10Z,42.805,6.029,13.3041,4.60150,2470.717,2023-7-22T08:51:28Z
2023-07-22T06:52:13Z,42.805,6.029,13.3033,4.60142,2470.67,2023-7-22T08:54:31Z
2023-07-22T06:55:16Z,42.805,6.029,13.3043,4.60148,2470.646,2023-7-22T08:57:34Z
2023-07-22T06:58:20Z,42.805,6.029,13.3045,4.60145,2470.693,2023-7-22T09:00:37Z
2023-07-22T07:01:23Z,42.805,6.029,13.3040,4.60144,2470.707,2023-7-22T09:03:40Z
2023-07-22T07:04:26Z,42.805,6.029,13.3038,4.60143,2470.693,2023-7-22T09:06:43Z
2023-07-22T07:07:29Z,42.805,6.029,13.3039,4.60157,2470.67,2023-7-22T09:09:46Z
2023-07-22T07:10:32Z,42.805,6.029,13.3043,4.60157,2470.693,2023-7-22T09:12:49Z
2023-07-22T07:13:35Z,42.805,6.029,13.3038,4.60121,2470.67,2023-7-22T09:15:52Z
2023-07-22T07:16:38Z,42.805,6.029,13.3034,4.60139,2470.717,2023-7-22T09:18:55Z
2023-07-22T07:19:41Z,42.805,6.029,13.3042,4.60164,2470.693,2023-7-22T09:21:58Z
2023-07-22T07:22:44Z,42.805,6.029,13.3051,4.60145,2470.717,2023-7-22T09:25:02Z
2023-07-22T07:25:47Z,42.805,6.029,13.3041,4.60127,2470.717,2023-7-22T09:28:05Z
2023-07-22T07:28:50Z,42.805,6.029,13.3043,4.60125,2470.684,2023-7-22T09:31:08Z
2023-07-22T07:31:54Z,42.805,6.029,13.3047,4.60141,2470.717,2023-7-22T09:34:11Z
2023-07-22T07:34:57Z,42.805,6.029,13.3045,4.60152,2470.73,2023-7-22T09:37:14Z
2023-07-22T07:38:00Z,42.805,6.029,13.3037,4.60149,2470.74,2023-7-22T09:40:17Z
2023-07-22T07:41:03Z,42.805,6.029,13.3043,4.60141,2470.73,2023-7-22T09:43:20Z
2023-07-22T07:44:06Z,42.805,6.029,13.3041,4.60147,2470.717,2023-7-22T09:46:23Z
2023-07-22T07:47:09Z,42.805,6.029,13.3047,4.60167,2470.707,2023-7-22T09:49:26Z
2023-07-22T07:50:12Z,42.805,6.029,13.3051,4.60162,2470.707,2023-7-22T09:52:29Z
2023-07-22T07:53:15Z,42.805,6.029,13.3066,4.60149,2470.684,2023-7-22T09:55:32Z
2023-07-22T07:56:18Z,42.805,6.029,13.3041,4.60142,2470.717,2023-7-22T09:58:35Z
2023-07-22T07:59:21Z,42.805,6.029,13.3051,4.60155,2470.726,2023-7-22T10:01:39Z
2023-07-22T08:02:24Z,42.805,6.029,13.3051,4.60155,2470.717,2023-7-22T10:04:42Z
2023-07-22T08:05:27Z,42.805,6.029,13.3059,4.60180,2470.73,2023-7-22T10:07:45Z
2023-07-22T08:08:31Z,42.805,6.029,13.3060,4.60147,2470.707,2023-7-22T10:10:48Z
2023-07-22T08:11:34Z,42.805,6.029,13.3051,4.60194,2470.73,2023-7-22T10:13:51Z
2023-07-22T08:14:37Z,42.805,6.029,13.3053,4.60144,2470.717,2023-7-22T10:16:54Z
2023-07-22T08:17:40Z,42.805,6.029,13.3055,4.60184,2470.74,2023-7-22T10:19:57Z
2023-07-22T08:20:43Z,42.805,6.029,13.3066,4.60143,2470.74,2023-7-22T10:23:00Z
2023-07-22T08:23:46Z,42.805,6.029,13.3054,4.60178,2470.717,2023-7-22T10:26:03Z
2023-07-22T08:26:49Z,42.805,6.029,13.3046,4.60157,2470.754,2023-7-22T10:29:06Z
2023-07-22T08:29:52Z,42.805,6.029,13.3064,4.60173,2470.754,2023-7-22T10:32:09Z
2023-07-22T08:32:55Z,42.805,6.029,13.3045,4.60162,2470.717,2023-7-22T10:35:12Z
2023-07-22T08:35:58Z,42.805,6.029,13.3049,4.60165,2470.74,2023-7-22T10:38:15Z
2023-07-22T08:39:01Z,42.805,6.029,13.3048,4.60154,2470.74,2023-7-22T10:41:18Z
2023-07-22T08:42:04Z,42.805,6.029,13.3066,4.60175,2470.717,2023-7-22T10:44:21Z
2023-07-22T08:45:07Z,42.805,6.029,13.3051,4.60164,2470.73,2023-7-22T10:47:24Z
2023-07-22T08:48:10Z,42.805,6.029,13.3052,4.60191,2470.717,2023-7-22T10:50:27Z
2023-07-22T08:51:13Z,42.805,6.029,13.3043,4.60172,2470.754,2023-7-22T10:53:31Z
2023-07-22T08:54:16Z,42.805,6.029,13.3054,4.60160,2470.73,2023-7-22T10:56:34Z
2023-07-22T08:57:19Z,42.805,6.029,13.3044,4.60160,2470.717,2023-7-22T10:59:37Z
2023-07-22T09:00:23Z,42.805,6.029,13.3048,4.60157,2470.717,2023-7-22T11:02:40Z
2023-07-22T09:03:26Z,42.805,6.029,13.3056,4.60174,2470.717,2023-7-22T11:05:43Z
2023-07-22T09:06:29Z,42.805,6.029,13.3048,4.60166,2470.74,2023-7-22T11:08:46Z
2023-07-22T09:09:32Z,42.805,6.029,13.3043,4.60177,2470.777,2023-7-22T11:11:49Z
2023-07-22T09:12:35Z,42.805,6.029,13.3046,4.60178,2470.693,2023-7-22T11:14:52Z
2023-07-22T09:15:38Z,42.805,6.029,13.3048,4.60153,2470.754,2023-7-22T11:17:55Z
2023-07-22T09:18:41Z,42.805,6.029,13.3050,4.60179,2470.777,2023-7-22T11:20:58Z
2023-07-22T09:21:44Z,42.805,6.029,13.3048,4.60150,2470.74,2023-7-22T11:24:01Z
2023-07-22T09:24:47Z,42.805,6.029,13.3045,4.60175,2470.754,2023-7-22T11:27:04Z
2023-07-22T09:27:50Z,42.805,6.029,13.3051,4.60168,2470.754,2023-7-22T11:30:08Z
2023-07-22T09:30:53Z,42.805,6.029,13.3066,4.60150,2470.74,2023-7-22T11:33:11Z
2023-07-22T09:33:56Z,42.805,6.029,13.3070,4.60152,2470.73,2023-7-22T11:36:14Z
2023-07-22T09:37:00Z,42.805,6.029,13.3046,4.60137,2470.717,2023-7-22T11:39:17Z
2023-07-22T09:40:03Z,42.805,6.029,13.3043,4.60147,2470.763,2023-7-22T11:42:20Z
2023-07-22T09:43:06Z,42.805,6.029,13.3044,4.60148,2470.74,2023-7-22T11:45:23Z
2023-07-22T09:46:09Z,42.805,6.029,13.3052,4.60156,2470.754,2023-7-22T11:48:26Z
2023-07-22T09:49:12Z,42.805,6.029,13.3055,4.60169,2470.74,2023-7-22T11:51:29Z
2023-07-22T09:52:15Z,42.805,6.029,13.3042,4.60160,2470.717,2023-7-22T11:54:32Z
2023-07-22T09:55:18Z,42.805,6.029,13.3046,4.60146,2470.754,2023-7-22T11:57:35Z
2023-07-22T09:58:21Z,42.805,6.029,13.3050,4.60152,2470.763,2023-7-22T12:00:38Z
2023-07-22T10:01:24Z,42.805,6.029,13.3046,4.60142,2470.74,2023-7-22T12:03:42Z
2023-07-22T10:04:27Z,42.805,6.029,13.3046,4.60165,2470.74,2023-7-22T12:06:45Z
2023-07-22T10:07:30Z,42.805,6.029,13.3048,4.60162,2470.717,2023-7-22T12:09:48Z
2023-07-22T10:10:34Z,42.805,6.029,13.3046,4.60160,2470.717,2023-7-22T12:12:51Z
2023-07-22T10:13:37Z,42.805,6.029,13.3054,4.60144,2470.777,2023-7-22T12:15:54Z
2023-07-22T10:16:40Z,42.805,6.029,13.3058,4.60155,2470.717,2023-7-22T12:18:57Z
2023-07-22T10:19:43Z,42.805,6.029,13.3048,4.60145,2470.777,2023-7-22T12:22:00Z
2023-07-22T10:22:46Z,42.805,6.029,13.3047,4.60157,2470.777,2023-7-22T12:25:03Z
2023-07-22T10:25:49Z,42.805,6.029,13.3050,4.60150,2470.74,2023-7-22T12:28:06Z
2023-07-22T10:28:52Z,42.805,6.029,13.3057,4.60137,2470.693,2023-7-22T12:31:09Z
2023-07-22T10:31:53Z,42.805,6.029,13.3054,4.60155,2470.763,2023-7-22T12:34:11Z
2023-07-22T10:34:56Z,42.805,6.029,13.3052,4.60165,2470.74,2023-7-22T12:37:14Z
2023-07-22T10:38:00Z,42.805,6.029,13.3047,4.60145,2470.74,2023-7-22T12:40:17Z
2023-07-22T10:41:03Z,42.805,6.029,13.3048,4.60149,2470.74,2023-7-22T12:43:20Z
2023-07-22T10:44:06Z,42.805,6.029,13.3045,4.60162,2470.74,2023-7-22T12:46:23Z
2023-07-22T10:47:09Z,42.805,6.029,13.3054,4.60154,2470.754,2023-7-22T12:49:26Z
2023-07-22T10:50:12Z,42.805,6.029,13.3061,4.60153,2470.74,2023-7-22T12:52:29Z
2023-07-22T10:53:15Z,42.805,6.029,13.3053,4.60157,2470.74,2023-7-22T12:55:32Z
2023-07-22T10:56:18Z,42.805,6.029,13.3056,4.60152,2470.693,2023-7-22T12:58:35Z
2023-07-22T10:59:21Z,42.805,6.029,13.3048,4.60133,2470.73,2023-7-22T13:01:38Z
2023-07-22T11:02:24Z,42.805,6.029,13.3048,4.60155,2470.693,2023-7-22T13:04:42Z
2023-07-22T11:05:27Z,42.805,6.029,13.3040,4.60176,2470.717,2023-7-22T13:07:45Z
2023-07-22T11:08:30Z,42.805,6.029,13.3040,4.60150,2470.73,2023-7-22T13:10:48Z
2023-07-22T11:11:34Z,42.805,6.029,13.3047,4.60153,2470.717,2023-7-22T13:13:51Z
2023-07-22T11:14:37Z,42.805,6.029,13.3048,4.60150,2470.717,2023-7-22T13:16:54Z
2023-07-22T11:17:40Z,42.805,6.029,13.3048,4.60147,2470.717,2023-7-22T13:19:57Z
2023-07-22T11:20:43Z,42.805,6.029,13.3052,4.60167,2470.717,2023-7-22T13:23:00Z
2023-07-22T11:23:46Z,42.805,6.029,13.3048,4.60162,2470.73,2023-7-22T13:26:03Z
2023-07-22T11:26:49Z,42.805,6.029,13.3056,4.60169,2470.693,2023-7-22T13:29:06Z
2023-07-22T11:29:52Z,42.805,6.029,13.3039,4.60151,2470.67,2023-7-22T13:32:09Z
2023-07-22T11:32:55Z,42.805,6.029,13.3041,4.60155,2470.73,2023-7-22T13:35:12Z
2023-07-22T11:35:58Z,42.805,6.029,13.3046,4.60144,2470.707,2023-7-22T13:38:16Z
2023-07-22T11:39:01Z,42.805,6.029,13.3049,4.60167,2470.707,2023-7-22T13:41:19Z
2023-07-22T11:42:04Z,42.805,6.029,13.3042,4.60135,2470.693,2023-7-22T13:44:22Z
2023-07-22T11:45:08Z,42.805,6.029,13.3040,4.60132,2470.717,2023-7-22T13:47:25Z
2023-07-22T11:48:11Z,42.805,6.029,13.3046,4.60125,2470.73,2023-7-22T13:50:28Z
2023-07-22T11:51:14Z,42.805,6.029,13.3044,4.60137,2470.693,2023-7-22T13:53:31Z
2023-07-22T11:54:17Z,42.805,6.029,13.3040,4.60123,2470.693,2023-7-22T13:56:34Z
2023-07-22T11:57:20Z,42.805,6.029,13.3044,4.60160,2470.693,2023-7-22T13:59:37Z
2023-07-22T12:00:23Z,42.805,6.029,13.3061,4.60145,2470.693,2023-7-22T14:02:40Z
2023-07-22T12:03:26Z,42.805,6.029,13.3039,4.60129,2470.707,2023-7-22T14:05:43Z
2023-07-22T12:06:29Z,42.805,6.029,13.3050,4.60175,2470.717,2023-7-22T14:08:46Z
2023-07-22T12:09:32Z,42.805,6.029,13.3070,4.60170,2470.707,2023-7-22T14:11:50Z
2023-07-22T12:12:35Z,42.805,6.029,13.3067,4.60152,2470.693,2023-7-22T14:14:53Z
2023-07-22T12:15:38Z,42.805,6.029,13.3039,4.60147,2470.707,2023-7-22T14:17:56Z
2023-07-22T12:18:42Z,42.805,6.029,13.3043,4.60144,2470.693,2023-7-22T14:20:59Z
2023-07-22T12:21:45Z,42.805,6.029,13.3041,4.60167,2470.707,2023-7-22T14:24:02Z
2023-07-22T12:24:48Z,42.805,6.029,13.3035,4.60160,2470.684,2023-7-22T14:27:05Z
2023-07-22T12:27:51Z,42.805,6.029,13.3035,4.60143,2470.693,2023-7-22T14:30:08Z
2023-07-22T12:30:54Z,42.805,6.029,13.3053,4.60155,2470.707,2023-7-22T14:33:11Z
2023-07-22T12:33:57Z,42.805,6.029,13.3041,4.60139,2470.67,2023-7-22T14:36:14Z
2023-07-22T12:37:00Z,42.805,6.029,13.3038,4.60163,2470.67,2023-7-22T14:39:17Z
2023-07-22T12:40:03Z,42.805,6.029,13.3035,4.60135,2470.684,2023-7-22T14:42:20Z
2023-07-22T12:43:06Z,42.805,6.029,13.3034,4.60137,2470.693,2023-7-22T14:45:23Z
2023-07-22T12:46:09Z,42.805,6.029,13.3036,4.60122,2470.67,2023-7-22T14:48:27Z
2023-07-22T12:49:12Z,42.805,6.029,13.3032,4.60126,2470.684,2023-7-22T14:51:30Z
2023-07-22T12:52:15Z,42.805,6.029,13.3035,4.60123,2470.693,2023-7-22T14:54:33Z
2023-07-22T12:55:19Z,42.805,6.029,13.3036,4.60132,2470.67,2023-7-22T14:57:36Z
2023-07-22T12:58:22Z,42.805,6.029,13.3034,4.60166,2470.693,2023-7-22T15:00:39Z
2023-07-22T13:01:25Z,42.805,6.029,13.3047,4.60147,2470.67,2023-7-22T15:03:42Z
2023-07-22T13:04:28Z,42.805,6.029,13.3044,4.60146,2470.707,2023-7-22T15:06:45Z
2023-07-22T13:07:31Z,42.805,6.029,13.3056,4.60156,2470.646,2023-7-22T15:09:48Z
2023-07-22T13:10:34Z,42.805,6.029,13.3056,4.60135,2470.661,2023-7-22T15:12:51Z
2023-07-22T13:13:37Z,42.805,6.029,13.3046,4.60166,2470.684,2023-7-22T15:15:54Z
2023-07-22T13:16:40Z,42.805,6.029,13.3054,4.60164,2470.646,2023-7-22T15:18:57Z
2023-07-22T13:19:43Z,42.805,6.029,13.3042,4.60144,2470.684,2023-7-22T15:22:01Z
2023-07-22T13:22:46Z,42.805,6.029,13.3034,4.60163,2470.67,2023-7-22T15:25:04Z
2023-07-22T13:25:49Z,42.805,6.029,13.3031,4.60125,2470.624,2023-7-22T15:28:07Z
2023-07-22T13:28:53Z,42.805,6.029,13.3056,4.60160,2470.646,2023-7-22T15:31:10Z
2023-07-22T13:31:56Z,42.805,6.029,13.3046,4.60149,2470.624,2023-7-22T15:34:13Z
2023-07-22T13:34:59Z,42.805,6.029,13.3056,4.60140,2470.661,2023-7-22T15:37:16Z
2023-07-22T13:38:02Z,42.805,6.029,13.3052,4.60156,2470.684,2023-7-22T15:40:19Z
2023-07-22T13:41:05Z,42.805,6.029,13.3071,4.60153,2470.661,2023-7-22T15:43:22Z
2023-07-22T13:44:08Z,42.805,6.029,13.3051,4.60152,2470.661,2023-7-22T15:46:25Z
2023-07-22T13:47:11Z,42.805,6.029,13.3066,4.60161,2470.624,2023-7-22T15:49:28Z
2023-07-22T13:50:14Z,42.805,6.029,13.3046,4.60163,2470.624,2023-7-22T15:52:31Z
2023-07-22T13:53:17Z,42.805,6.029,13.3065,4.60155,2470.646,2023-7-22T15:55:35Z
2023-07-22T13:56:20Z,42.805,6.029,13.3059,4.60155,2470.646,2023-7-22T15:58:38Z
2023-07-22T13:59:23Z,42.805,6.029,13.3048,4.60155,2470.624,2023-7-22T16:01:41Z
2023-07-22T14:02:27Z,42.805,6.029,13.3057,4.60140,2470.646,2023-7-22T16:04:44Z
2023-07-22T14:05:30Z,42.805,6.029,13.3031,4.60152,2470.646,2023-7-22T16:07:47Z
2023-07-22T14:08:33Z,42.805,6.029,13.3050,4.60172,2470.637,2023-7-22T16:10:50Z
2023-07-22T14:11:36Z,42.805,6.029,13.3053,4.60144,2470.614,2023-7-22T16:13:53Z
2023-07-22T14:14:39Z,42.805,6.029,13.3039,4.60166,2470.637,2023-7-22T16:16:56Z
2023-07-22T14:17:42Z,42.805,6.029,13.3064,4.60146,2470.624,2023-7-22T16:19:59Z
2023-07-22T14:20:45Z,42.805,6.029,13.3041,4.60150,2470.624,2023-7-22T16:23:02Z
2023-07-22T14:23:48Z,42.805,6.029,13.3064,4.60162,2470.646,2023-7-22T16:26:05Z
2023-07-22T14:26:51Z,42.805,6.029,13.3048,4.60170,2470.637,2023-7-22T16:29:09Z
2023-07-22T14:29:54Z,42.805,6.029,13.3063,4.60158,2470.624,2023-7-22T16:32:12Z
2023-07-22T14:32:56Z,42.805,6.029,13.3044,4.60154,2470.637,2023-7-22T16:35:13Z
2023-07-22T14:35:59Z,42.805,6.029,13.3043,4.60173,2470.6,2023-7-22T16:38:16Z
2023-07-22T14:39:02Z,42.805,6.029,13.3054,4.60167,2470.624,2023-7-22T16:41:19Z
2023-07-22T14:42:05Z,42.805,6.029,13.3054,4.60173,2470.646,2023-7-22T16:44:23Z
2023-07-22T14:45:08Z,42.805,6.029,13.3054,4.60155,2470.614,2023-7-22T16:47:26Z
2023-07-22T14:48:11Z,42.805,6.029,13.3048,4.60175,2470.6,2023-7-22T16:50:29Z
2023-07-22T14:51:15Z,42.805,6.029,13.3058,4.60172,2470.614,2023-7-22T16:53:32Z
2023-07-22T14:54:18Z,42.805,6.029,13.3033,4.60129,2470.637,2023-7-22T16:56:35Z
2023-07-22T14:57:21Z,42.805,6.029,13.3037,4.60142,2470.637,2023-7-22T16:59:38Z
2023-07-22T15:00:24Z,42.805,6.029,13.3040,4.60168,2470.637,2023-7-22T17:02:41Z
2023-07-22T15:03:27Z,42.805,6.029,13.3060,4.60127,2470.624,2023-7-22T17:05:44Z
2023-07-22T15:06:30Z,42.805,6.029,13.3046,4.60132,2470.624,2023-7-22T17:08:47Z
2023-07-22T15:09:33Z,42.805,6.029,13.3045,4.60147,2470.624,2023-7-22T17:11:50Z